Regional Weather Roundup
Issued by NWS

Home | Current Version | Previous Version | Text Only | Print | Product List | Glossary On
Versions: 1 2 3 4 5 6 7 8 9 10 11 12 13 14 15 16 17 18 19 20 21 22 23 24 25 26 27 28 29 30 31 32 33 34 35 36 37 38 39 40 41 42 43 44 45 46 47 48 49 50
000
ASUS43 KDTX 101101
RWRMI
MICHIGAN HOURLY REGIONAL WEATHER ROUNDUP
NATIONAL WEATHER SERVICE DETROIT/PONTIAC MI
600 AM EST SAT DEC 10 2016

NOTE: "FAIR" INDICATES FEW OR NO CLOUDS BELOW 12,000 FEET WITH NO
SIGNIFICANT WEATHER AND/OR OBSTRUCTION TO VISIBILITY.

MIZ047>049-052>055-059>063-066>070-074>076-081>083-101200-
SOUTHEAST LOWER MICHIGAN

CITY           SKY/WX    TMP DP  RH WIND       PRES   REMARKS
ADRIAN         PTCLDY    20  16  84 W9        30.46R WCI   9
ALMA           CLEAR     19  13  75 SW5       30.40F WCI  13
ANN ARBOR      MOCLDY    21  18  88 SW10      30.43R WCI  10
BAD AXE        FLURRIES  24  17  74 W13       30.36S WCI  12
CARO           CLOUDY    23  16  74 W10       30.38R WCI  13
DETROIT CITY   CLOUDY    25  19  78 W8        30.42R WCI  16
DETROIT        CLOUDY    24  19  81 SW12      30.44R WCI  13
GROSSE ILE     CLOUDY    24  19  81 W7        30.43S WCI  16
HILLSDALE      LGT SNOW  19  18  93 SW8       30.41S WCI   9
HOWELL         PTCLDY    21  17  85 W7        30.40S WCI  13

CITY           SKY/WX    TMP DP  RH WIND       PRES   REMARKS
JACKSON        LGT SNOW  20  16  84 SW9       30.42S WCI   9
LAMBERTVILLE   MOCLDY    24  17  76 W6        30.46R WCI  17
LANSING        MOCLDY    20  15  81 W9        30.42S WCI   9
LAPEER         NOT AVBL
MASON          FLURRIES  20  18  92 CALM      30.42R
MONROE         CLOUDY    24  19  83 W9        30.44R WCI  14
MT. CLEMENS    CLOUDY    25  16  68 W12       30.38S WCI  14
PONTIAC        CLOUDY    22  16  78 W12       30.38R WCI  10
PORT HOPE        N/A     25  16  68 W7        30.33R WCI  17
PORT HURON     CLOUDY    25  18  74 W6        30.39R WCI  18
TRI CITIES     PTCLDY    22  14  71 W12       30.40R WCI  10
MIDLAND        MOCLDY    23  12  62 W6        30.39R WCI  16
TROY           CLOUDY    25  15  65 W9        30.43R WCI  16
SAGINAW HB     PTCLDY    23  14  68 W7        30.39S WCI  15
$$
MIZ043>046-050>051-056>058-064>065-071>073-077>080-101200-
SOUTHWEST LOWER MICHIGAN

CITY           SKY/WX    TMP DP  RH WIND       PRES   REMARKS
BATTLE CREEK   LGT SNOW  20  18  92 SW9       30.43R FOG     WCI   9
BENTON HARBOR  LGT SNOW  25  17  72 W13       30.46S WCI  14
BIG RAPIDS     FLURRIES  19  15  84 W5        30.37S WCI  13
COLDWATER      LGT SNOW  20  18  89 SW8       30.45R WCI  11
FREMONT        LGT SNOW  19  18  96 CALM      30.40S
HOLLAND        FLURRIES  25  18  74 W14       30.42F WCI  13
GRAND RAPIDS   LGT SNOW  21  19  92 S3        30.42S VSB 1
IONIA          LGT SNOW  19  17  89 SW5       30.41S WCI  13
KALAMAZOO      LGT SNOW  22  18  85 SW9       30.44R VSB 1   WCI  12
LUDINGTON      FLURRIES  24  14  67 NW8       30.39S WCI  14
MARSHALL       LGT SNOW  20  18  91 SW7       30.43R WCI  11
MOUNT PLEASANT CLEAR     20  12  72 W5        30.38S WCI  13
MUSKEGON       FLURRIES  27  15  61 W14G20    30.41F WCI  16
SOUTH HAVEN    LGT SNOW  25  20  81 W12       30.44S WCI  15
$$
MIZ016>042-101200-
NORTHERN LOWER MICHIGAN

CITY           SKY/WX    TMP DP  RH WIND       PRES   REMARKS
ALPENA         CLOUDY    22  18  85 W6        30.33R WCI  14
BEAVER ISLAND  CLOUDY    19  11  70 W14G23    30.34R WCI   6
BELLAIRE       LGT SNOW  21  19  90 SW6       30.36S VSB 1   WCI  13
CADILLAC       FLURRIES  17  13  84 SW10G16   30.32S WCI   5
CHARLEVOIX     LGT SNOW  23  16  75 W13       30.36R WCI  11
FRANKFORT      CLOUDY    23  13  66 W10       30.37S WCI  13
GAYLORD        CLOUDY    20  13  74 W14       30.28S WCI   7
GRAYLING       MOCLDY    14  11  87 W3        30.33R
HARBOR SPRINGS CLOUDY    21  13  71 NW8       30.31S WCI  12
HOUGHTON LAKE  CLOUDY    19  11  70 W10       30.34R WCI   7
MANISTEE       FLURRIES  21  12  68 W14       30.39S WCI   8
OSCODA         CLOUDY    24  16  73 MISG      30.34R
PELLSTON       CLOUDY    21  10  62 NW14      30.32R WCI   8
ROGERS CITY    CLOUDY    22  18  84 W6        30.33R WCI  14
TRAVERSE CITY  CLOUDY    21  14  74 SW3       30.36S
$$
MIZ007>008-015-101200-
EASTERN UPPER MICHIGAN

CITY           SKY/WX    TMP DP  RH WIND       PRES   REMARKS
KINROSS        MOCLDY    11   9  92 W7        30.29R WCI   0
MACKINAC ISLAN CLOUDY    21  13  70 W16       30.30R WCI   7
NEWBERRY       MOCLDY     8   5  87 CALM      30.29R
S. S. MARIE    CLOUDY    15  12  88 CALM      30.29R
MUNISING         N/A     10   2  69 VRB6      30.33S WCI   0
$$
MIZ004>006-011>014-085-101200-
CENTRAL UPPER MICHIGAN

CITY           SKY/WX    TMP DP  RH WIND       PRES   REMARKS
MANISTIQUE     CLEAR     10   4  78 W13       30.34S WCI  -6
ESCANABA       CLEAR     11   3  70 W9        30.40R WCI  -2
MENOMINEE      CLOUDY    16   5  62 VRB7      30.41S WCI   6
SAWYER-GWINN   CLEAR      6   1  79 W13       30.31S WCI -10
$$
MIZ001>003-009>011-084-101200-
WESTERN UPPER MICHIGAN

CITY           SKY/WX    TMP DP  RH WIND       PRES   REMARKS
IRON MOUNTAIN  CLEAR      8  -3  61 W8        30.35R WCI  -4
HOUGHTON       LGT SNOW  13   8  81 W10       30.31R VSB 1   WCI   0
COPPER HARBOR    N/A     20  14  77 NE15      30.32R WCI   6
IRONWOOD       LGT SNOW   6   2  83 W13       30.39S FOG     WCI -10
$$

ABBREVIATIONS USED IN REMARKS
   TC - TEMPERATURE IN CELSIUS
  WCI - WIND CHILL INDEX
   HX - HEAT INDEX
  VSB - VISIBILITY




USA.gov is the U.S. government's official web portal to all federal, state and local government web resources and services.